FW6210 Weather Reports


time (UTC)temp
F
wind
direction
speed
knots
gust
knots
rain 1hr
in
rain 24hr
in
rain mn
in
humidity
%
barometer
mb
20260504190036 56 225 1.7 5.2 0.00 0.00 0.00 46 1004.9
20260504184534 57 316 1.7 6.1 0.00 0.00 0.00 45 1005.4
20260504183025 56 63 1.7 7.0 0.00 0.00 0.00 44 1005.6
20260504181523 55 184 1.7 7.0 0.00 0.00 0.00 50 1005.8
20260504180018 54 71 1.7 4.3 0.00 0.00 0.00 49 1006.0
20260504174514 53 324 2.6 7.0 0.00 0.00 0.00 53 1006.3
20260504173012 52 162 0.9 4.3 0.00 0.00 0.00 53 1006.6
20260504171510 52 84 0.9 3.5 0.00 0.00 0.00 53 1006.8
20260504120125 31 115 0.0 1.7 0.00 0.00 0.00 76 1008.3
20260504081505 30 229 0.0 0.0 0.00 0.00 0.00 72 1008.9
20260504044543 38 226 0.0 0.0 0.00 0.00 0.00 58 1009.9
20260504043046 39 226 0.0 1.7 0.00 0.00 0.00 57 1010.1
20260504041542 40 226 0.9 1.7 0.00 0.00 0.00 56 1010.1
20260504040042 41 226 0.0 1.7 0.00 0.00 0.00 54 1010.2
20260504034541 42 226 0.9 2.6 0.00 0.00 0.00 53 1010.3
20260504033040 43 226 0.0 1.7 0.00 0.00 0.00 48 1010.3
20260504031541 44 192 1.7 3.5 0.00 0.00 0.00 43 1010.1
20260504030040 46 194 0.9 4.3 0.00 0.00 0.00 37 1010.0
20260504024543 46 178 0.9 2.6 0.00 0.00 0.00 40 1009.9
20260504023040 47 178 0.9 3.5 0.00 0.00 0.00 35 1009.8
20260504021538 47 146 0.9 4.3 0.00 0.00 0.00 41 1009.7
20260504020104 49 155 0.9 2.6 0.00 0.00 0.00 40 1009.8
20260504014553 52 155 0.9 2.6 0.00 0.00 0.00 32 1009.7
20260504013045 55 80 0.0 3.5 0.00 0.00 0.00 26 1009.7
20260504011537 56 355 0.9 4.3 0.00 0.00 0.00 26 1009.6
20260504010042 57 28 1.7 4.3 0.00 0.00 0.00 25 1009.7
20260504004546 57 12 0.9 3.5 0.00 0.00 0.00 24 1009.7
20260504003033 57 309 0.9 3.5 0.00 0.00 0.00 27 1009.8
20260504001543 57 331 1.7 6.1 0.00 0.00 0.00 26 1010.0
20260504000032 58 22 1.7 7.0 0.00 0.00 0.00 26 1010.0
20260503234532 58 230 1.7 4.3 0.00 0.00 0.00 27 1009.9
20260503233035 59 327 0.9 5.2 0.00 0.00 0.00 25 1010.1
20260503231529 60 222 1.7 7.0 0.00 0.00 0.00 25 1010.1
20260503230028 60 5 2.6 8.7 0.00 0.00 0.00 24 1010.3
20260503224528 60 101 1.7 7.0 0.00 0.00 0.00 24 1010.4
20260503223026 58 9 0.9 2.6 0.00 0.00 0.00 27 1010.6
20260503221524 58 251 1.7 6.1 0.00 0.00 0.00 28 1010.9
20260503220023 58 9 1.7 4.3 0.00 0.00 0.00 26 1011.0
20260503214522 58 9 0.9 2.6 0.00 0.00 0.00 27 1011.3
20260503213020 59 130 0.9 4.3 0.00 0.00 0.00 26 1011.4
20260503211518 61 30 1.7 7.8 0.00 0.00 0.00 23 1011.6
20260503210015 60 111 2.6 7.0 0.00 0.00 0.00 24 1011.9
20260503204513 59 87 0.9 5.2 0.00 0.00 0.00 26 1012.0
20260503203032 60 247 1.7 7.0 0.00 0.00 0.00 26 1012.1
20260503201511 60 80 3.5 15.6 0.00 0.00 0.00 26 1012.1
20260503200012 60 259 1.7 9.6 0.00 0.00 0.00 28 1012.2
20260503194514 60 338 2.6 8.7 0.00 0.00 0.00 28 1012.4
20260503193007 60 105 2.6 7.8 0.00 0.00 0.00 28 1012.4
20260503191504 60 115 1.7 5.2 0.00 0.00 0.00 29 1012.4